{"data":{"norad_id":62114,"epoch":"2026-05-25T03:16:10.836192Z","epoch_age_seconds":67293,"freshness":"FRESH","line1":"1 62114U 24222A   26145.13623653  .00009633  00000+0  35902-3 0  9995","line2":"2 62114  43.0021  49.4716 0001573 262.5709  97.4964 15.27590215 84776","mean_motion":15.27590215,"eccentricity":0.0001573,"inclination_deg":43.0021,"raan_deg":49.4716,"arg_perigee_deg":262.5709,"mean_anomaly_deg":97.4964,"bstar":0.00035902,"rev_number":8477,"period_min":94.266118351642,"perigee_km":481.93924906374,"apogee_km":484.09776858681,"semimajor_km":6861.1555088253,"source":"CELESTRAK","updated_at":"2026-05-25T13:38:19.561915Z"}}